Location: Newark
(46.1292°N, 1.0086°W)
Time: 02:38:21
(UTC+00:00)

Vanguard 3 - Pass Details

Date: 17 November 2019
Orbit: 508 x 3263 km, 33.3° (Epoch: 06 December)

Event Time Altitude Azimuth Distance (km) Brightness Sun altitude
Rises 19:18:38 0° 273° (W) 6,858 13.1 -29.0°
Reaches altitude 10° 19:24:21 10° 266° (W) 5,495 12.3 -30.0°
Maximum altitude 19:36:40 31° 213° (SSW) 3,061 10.2 -32.1°
Enters shadow 19:42:13 19° 169° (S) 3,130 9.9 -33.1°
Drops below altitude 10° 19:44:43 10° 155° (SSE) 3,525 - -33.5°
Sets 19:47:31 0° 144° (SE) 4,161 - -34.0°
